RH
84 70 70 67 73 74 76 73 69 63 48 35 35 40 40 52 71 78 83 82 77 68 62 41 23 30 30 30 56 60 66 33 40 43 64 79 66 43 41 62 66 80 63
72 66 70 70 68 73 77 75 71 70 63 49 50 49 42 38 39 43 45 43 41 35 29 26 36 22 22 23 26 33 34 30 27 24 33 66 58 39 64 64 72 71 76
70 62 68 68 71 76 78 77 75 74 72 65 60 62 54 50 38 32 31 30 30 30 46 45 28 23 22 23 23 26 27 26 26 28 22 36 46 64 80 82 62 46 40
72 59 63 68 74 75 77 78 77 76 73 72 68 64 61 58 50 44 42 49 56 81 87 56 39 42 50 44 35 27 25 28 30 33 26 65 77 81 84 88 43 49 45
76 64 60 66 71 74 74 72 72 74 73 70 72 70 68 66 61 56 49 60 76 77 69 66 56 40 58 52 57 56 44 34 31 35 36 53 81 96 99 76 69 40 47
69 72 68 61 59 59 61 62 62 63 63 62 63 72 73 73 67 64 58 62 76 76 63 64 72 59 38 65 74 74 69 69 46 35 42 29 54 85 95 92 43 38 46
65 48 58 65 64 61 59 59 58 57 57 57 60 64 73 74 72 69 64 64 59 68 60 64 75 62 42 44 73 76 66 72 57 46 41 40 34 36 69 57 37 54 53
57 50 35 27 28 34 44 52 55 58 60 63 63 63 62 64 70 73 74 73 72 64 60 66 67 57 41 30 54 76 72 72 73 54 79 79 54 43 37 43 51 68 76
58 52 48 45 42 35 23 21 27 43 58 63 66 72 73 71 66 68 71 74 76 70 71 68 71 66 42 27 31 58 74 74 67 68 81 85 76 65 79 46 78 81 74
58 53 49 44 35 33 19 19 20 20 27 48 63 67 71 74 76 68 66 70 77 74 77 74 72 77 48 44 30 39 55 69 68 71 76 85 89 97 89 95 91 83 72
46 43 41 40 40 30 24 23 22 22 21 20 20 35 63 68 71 77 71 71 74 76 77 81 75 77 63 52 38 30 36 42 45 55 76 83 85 98 98 88 78 76 72
42 42 42 42 41 32 27 25 26 27 25 24 23 22 20 30 67 75 80 78 77 82 82 86 83 79 72 48 54 31 26 28 30 29 59 84 85 88 81 71 70 74 74
45 44 44 44 42 36 31 28 27 28 28 26 26 27 25 21 21 62 76 82 82 82 86 85 89 84 78 53 47 53 38 25 25 25 40 80 87 88 71 71 75 73 70
46 47 50 49 47 43 38 32 31 28 29 28 26 29 29 28 30 30 58 80 81 85 80 80 87 87 87 81 46 49 58 47 35 24 30 57 85 89 86 86 89 84 72
33 32 35 40 42 50 44 37 37 35 31 28 27 32 32 32 32 41 49 58 85 84 88 91 83 83 83 84 84 52 46 63 56 44 28 38 79 84 85 84 87 80 77
31 30 30 33 38 43 46 49 45 42 36 29 28 32 34 36 36 34 41 63 72 88 92 89 93 94 91 89 87 84 70 45 61 56 50 67 79 78 73 70 76 65 67
44 38 31 30 32 37 49 54 51 50 41 31 31 33 32 31 34 36 35 37 59 77 81 87 91 92 93 93 91 90 83 80 49 55 59 55 70 78 82 80 77 69 69
64 49 47 38 36 36 41 52 52 49 43 43 39 36 33 31 31 32 33 34 39 62 83 86 84 90 94 94 92 91 93 89 83 68 59 68 60 72 82 79 79 76 77
81 76 66 57 46 44 45 44 49 54 52 47 49 45 40 35 30 29 34 37 39 43 49 58 67 72 72 79 96 97 92 95 94 88 81 72 85 77 71 76 77 81 83
70 80 83 84 76 68 61 56 56 59 59 62 61 56 53 46 39 32 30 36 47 43 46 53 53 51 49 54 58 85 93 93 94 95 89 88 79 76 78 72 78 78 82
43 58 66 75 86 93 81 76 72 67 70 70 71 80 74 67 55 47 44 45 54 61 54 57 61 62 55 45 49 59 66 78 91 91 92 89 85 82 76 79 78 79 77
19 19 30 46 57 68 82 94 98 99 96 93 80 78 77 83 71 57 49 60 74 76 70 61 57 58 55 50 53 51 63 51 47 41 38 83 89 86 77 78 86 85 81
15 15 15 17 23 37 43 50 74 91 95 97 86 80 79 89 97 82 60 58 81 93 86 76 68 62 56 54 61 64 87 71 62 53 49 58 74 84 90 88 84 89 90
17 15 13 14 14 14 15 24 31 45 62 85 94 90 86 92 98 93 90 78 73 99 98 89 82 73 67 59 63 68 74 80 89 81 77 74 72 69 81 90 95 92 90
20 18 17 15 14 14 14 15 17 21 32 42 75 92 98 82 96 85 98 96 85 100 100 94 94 88 80 71 68 66 70 70 94 98 96 90 75 72 76 77 89 98 96
22 20 18 16 15 15 15 16 18 18 18 28 36 60 83 96 92 96 97 100 90 89 96 92 93 97 96 87 79 77 76 80 89 85 88 92 83 76 71 83 80 76 80
Wind_Speed
5 7 9 10 10 9 9 10 9 8 8 8 8 9 9 10 11 11 9 8 6 3 2 3 4 5 6 8 10 9 7 7 10 12 13 12 12 13 15 16 17 19 17
7 8 9 10 9 9 11 11 9 8 7 8 8 8 8 7 7 7 6 5 4 2 3 5 7 7 8 9 9 8 8 8 9 10 11 11 11 13 15 16 16 15 16
7 9 10 9 9 9 10 10 8 7 6 6 7 7 7 7 6 6 6 6 6 6 8 9 9 9 8 8 8 8 8 9 10 10 12 14 14 15 14 15 14 13 13
7 8 9 9 8 8 8 8 7 6 6 5 5 5 5 5 5 5 6 7 8 8 7 7 8 8 9 8 8 8 9 9 9 11 12 15 14 14 14 14 16 15 13
7 8 7 7 7 7 7 7 6 6 5 5 5 5 5 4 5 4 4 5 5 6 5 4 5 6 7 8 9 7 7 7 8 9 12 15 13 14 16 17 14 13 12
8 6 6 6 6 7 7 7 7 6 6 6 6 6 6 6 5 5 4 3 4 4 3 4 6 4 5 7 7 7 5 4 5 8 11 13 13 13 14 12 11 12 13
5 5 4 4 4 5 6 7 7 7 7 7 7 7 8 7 7 6 5 4 4 4 4 4 6 4 4 7 8 7 5 3 5 6 9 10 11 11 11 10 11 13 13
2 3 3 2 2 2 3 5 6 8 8 9 9 9 9 9 9 8 8 7 6 6 6 5 6 4 4 8 11 10 7 4 5 6 6 6 9 10 10 10 13 14 10
4 2 2 2 3 5 6 7 8 8 8 9 10 10 10 10 10 11 11 10 8 7 7 6 5 5 5 9 12 11 10 7 5 7 5 5 7 10 14 13 15 12 10
6 6 5 4 5 8 9 9 9 9 9 10 11 12 12 13 12 13 13 12 11 10 9 8 7 6 6 8 11 13 13 10 7 8 6 2 4 11 15 13 14 8 6
9 9 9 9 10 10 9 7 7 7 8 9 11 13 14 14 14 13 13 13 13 11 11 10 9 8 7 8 9 12 13 13 11 10 9 6 4 6 14 12 10 7 5
12 12 13 13 13 12 11 9 9 9 9 9 10 11 13 15 15 15 15 14 14 14 13 12 11 10 10 10 10 10 11 13 12 12 11 8 7 9 9 9 9 9 7
12 14 16 17 16 15 14 13 11 11 11 11 11 11 12 13 15 16 16 16 16 15 15 14 13 14 11 11 11 11 10 11 13 13 13 11 8 10 11 10 9 6 5
14 16 16 17 19 19 18 17 14 13 14 13 12 12 12 13 13 13 17 16 17 16 15 15 15 14 14 12 12 13 13 11 11 14 16 13 11 12 12 12 10 8 8
16 15 15 18 20 20 22 19 17 16 16 15 14 14 13 12 12 13 13 16 17 18 18 16 16 16 15 15 15 15 16 16 14 13 15 16 16 14 12 11 10 9 12
14 15 15 16 17 19 19 20 19 19 18 17 15 15 15 15 14 14 14 14 16 17 17 17 17 18 18 17 17 17 18 18 18 16 15 17 17 16 16 14 13 12 13
14 12 13 14 17 18 18 19 20 20 20 18 17 16 17 17 17 17 16 16 17 18 20 20 20 20 22 21 20 20 20 20 21 21 20 20 21 20 19 18 17 14 14
15 12 10 12 15 17 19 20 22 20 18 18 18 18 18 18 19 19 19 19 18 20 22 22 21 23 24 24 24 23 23 23 23 23 23 22 23 24 22 20 22 19 17
21 19 13 10 10 12 15 17 18 18 17 17 18 19 19 19 20 21 22 21 21 22 23 24 25 26 27 25 24 24 24 24 25 26 26 26 24 23 25 24 22 22 20
24 20 19 17 12 9 11 14 16 17 17 16 16 19 20 21 21 23 23 23 22 23 23 23 23 24 24 24 24 24 23 24 25 27 29 29 30 29 26 26 24 24 22
26 24 25 25 26 21 13 12 14 15 15 13 13 13 17 22 23 23 23 23 23 23 22 22 23 24 24 22 22 25 28 28 26 25 26 29 31 32 31 28 27 26 25
30 30 29 27 26 25 25 25 22 16 14 14 17 18 17 17 23 24 24 24 24 25 24 23 23 23 22 21 21 20 21 25 30 32 32 30 27 29 32 32 28 26 28
31 33 33 32 29 27 29 30 26 18 15 18 18 23 22 21 20 24 26 27 26 27 27 25 23 24 23 22 20 18 7 12 10 17 22 29 31 28 28 33 32 29 30
32 31 31 31 32 32 31 31 32 33 34 29 26 25 27 27 25 23 27 28 30 29 30 28 26 25 24 23 22 21 23 19 5 4 8 16 19 24 27 28 29 32 32
29 31 31 32 32 32 33 33 33 32 34 38 33 28 25 29 28 27 24 30 31 30 30 30 28 27 27 25 24 23 23 22 22 23 20 22 18 17 17 25 30 33 33
29 31 32 33 32 33 32 33 34 34 35 36 40 40 31 28 27 26 22 25 30 32 34 33 32 31 30 29 27 26 26 24 19 21 26 30 27 27 29 29 26 21 27
Wind_Direction
165 165 168 168 171 168 166 155 145 131 124 123 119 116 115 117 122 127 123 127 132 131 82 55 69 71 93 112 123 118 118 97 106 127 145 144 127 118 118 115 111 105 106
163 159 155 161 170 170 167 160 155 142 129 130 131 127 123 119 125 135 144 148 158 160 103 86 78 79 98 105 115 128 120 111 112 119 138 147 140 130 127 126 122 115 115
151 156 153 160 167 162 164 165 164 162 151 141 142 139 137 131 126 125 122 116 116 113 103 97 90 89 93 98 106 113 117 120 119 120 123 131 130 137 133 134 129 121 114
142 154 155 162 168 161 169 175 180 177 179 176 169 164 154 147 137 130 123 114 113 115 123 103 100 97 101 103 104 111 116 120 123 126 129 134 130 138 140 132 127 120 112
143 146 149 164 177 180 180 183 184 190 195 197 199 207 196 178 161 149 137 124 128 138 149 131 122 109 117 122 120 111 110 111 126 131 140 147 138 130 136 133 124 118 108
108 135 148 164 178 188 198 207 211 213 218 220 221 221 223 218 202 183 171 151 179 177 182 171 160 139 136 146 142 134 122 111 124 135 146 154 159 145 137 139 123 121 118
69 118 136 162 190 204 211 215 218 219 221 222 222 225 227 229 232 223 219 215 219 215 207 189 179 177 179 183 179 171 155 121 153 153 148 160 166 173 170 159 141 135 129
68 91 117 127 154 209 224 229 232 233 232 234 232 230 233 236 236 237 240 239 238 230 225 214 209 208 200 201 206 194 188 167 152 159 144 173 187 184 176 164 153 146 136
195 205 270 274 281 280 269 257 249 243 240 238 239 239 237 239 239 241 246 246 240 237 230 227 224 214 209 203 217 213 206 203 189 182 173 146 182 195 185 169 162 148 141
207 205 225 272 289 299 283 269 254 247 247 245 243 243 246 246 244 243 244 242 240 239 235 234 235 227 215 210 219 218 216 218 215 203 200 198 268 204 190 186 164 160 142
229 242 264 275 291 296 287 269 265 262 256 251 249 248 246 246 246 246 246 245 242 241 239 237 236 235 229 215 213 219 223 225 225 224 214 237 264 164 155 161 168 162 155
261 269 274 284 292 290 285 277 274 272 273 269 265 261 256 249 244 243 242 244 244 241 239 241 237 237 233 226 223 218 220 227 228 226 226 240 224 204 196 198 182 181 184
258 266 279 285 288 286 283 279 279 276 278 279 273 270 266 259 250 244 243 242 242 243 241 240 238 237 239 235 231 227 221 223 227 227 224 231 210 204 209 207 217 223 257
274 272 268 272 278 283 278 276 277 280 279 278 277 272 270 264 260 256 246 246 245 241 242 243 243 245 245 246 239 234 231 226 226 227 224 231 222 213 211 221 234 246 258
272 271 272 268 274 279 278 272 273 281 284 277 274 270 267 265 263 259 256 246 246 245 244 241 241 244 246 249 248 243 239 235 235 233 226 227 227 222 224 235 244 253 260
296 286 276 264 262 269 273 275 280 284 283 272 269 269 269 267 265 261 256 253 249 244 240 244 244 247 248 249 250 249 246 243 241 238 230 225 228 233 239 245 240 251 259
347 322 285 266 258 259 259 263 271 283 285 275 269 267 268 269 268 267 261 254 251 249 250 249 246 252 251 250 251 247 245 245 243 242 241 237 234 237 243 251 251 247 255
14 354 318 286 273 265 262 262 267 274 276 278 275 271 271 272 271 268 266 262 254 250 252 254 254 255 254 254 256 254 250 246 244 243 242 242 240 238 240 246 253 255 261
21 18 3 327 294 270 260 259 261 265 270 272 278 281 278 275 275 272 268 264 259 255 254 256 257 256 256 256 254 252 251 250 245 243 242 240 242 247 246 245 250 252 257
33 24 18 7 343 312 271 255 254 257 262 273 282 287 287 284 281 277 272 267 262 257 255 255 255 257 256 255 254 254 252 248 246 245 244 243 242 244 246 244 248 251 252
34 27 21 14 13 359 333 303 262 260 266 272 281 294 299 296 288 285 279 267 261 258 256 254 254 253 255 256 256 253 252 251 252 250 249 248 246 244 245 244 245 248 248
28 25 20 15 7 3 2 1 353 319 285 280 276 277 286 299 297 288 279 272 262 259 256 254 253 254 254 251 252 258 264 261 257 255 254 252 250 244 242 246 245 243 246
19 16 13 10 6 357 351 347 339 325 310 274 268 276 280 287 290 288 280 270 261 258 256 254 253 251 251 252 247 240 228 235 256 262 254 248 250 251 249 247 246 245 250
13 9 6 4 0 355 350 345 341 336 332 328 320 299 291 287 287 285 279 271 260 256 256 254 253 249 247 245 245 242 239 244 237 278 244 243 249 251 247 247 247 248 250
4 2 358 355 353 351 346 342 339 330 325 322 315 308 291 275 280 279 280 271 267 253 251 252 249 247 245 245 246 247 247 247 249 250 265 263 257 258 264 254 253 251 252
359 356 353 350 346 342 341 339 335 330 323 314 311 308 302 291 273 274 280 278 272 261 251 250 248 247 247 246 244 243 245 246 247 253 251 261 269 267 259 264 263 265 257